This is the latest recevied weather packets stored in our database for station/object K6GMW. If no packets are shown the sender has not sent any weather packets the latest 10 day(s).
| Time | Temp. | Humidity | Pressure | Rain* | Wind** | Luminosity | Snow |
|---|---|---|---|---|---|---|---|
| 1777681158 | 14.44° C | 86% | 1017.2 hPa | 0 mm | - | 11 W/m² | - |
| 1777680855 | 14.44° C | 87% | 1017 hPa | 0 mm | - | 26 W/m² | - |
| 1777680553 | 14.44° C | 85% | 1017.1 hPa | 0 mm | - | 23 W/m² | - |
| 1777680251 | 14.44° C | 84% | 1017.2 hPa | 0 mm | - | 9 W/m² | - |
| 1777679947 | 14.44° C | 83% | 1017.1 hPa | 0 mm | - | 25 W/m² | - |
| 1777679643 | 14.44° C | 82% | 1017.3 hPa | 0 mm | - | 72 W/m² | - |
| 1777679338 | 14.44° C | 82% | 1017.2 hPa | 0 mm | - | 40 W/m² | - |
| 1777679035 | 14.44° C | 83% | 1017.1 hPa | 0 mm | - | 52 W/m² | - |
| 1777678733 | 14.44° C | 82% | 1016.8 hPa | 0 mm | - | 48 W/m² | - |
| 1777678431 | 14.44° C | 83% | 1016.5 hPa | 0.51 mm | - | 48 W/m² | - |
| 1777678126 | 14.44° C | 83% | 1016.7 hPa | 0.51 mm | - | 41 W/m² | - |
| 1777677823 | 15° C | 83% | 1017 hPa | 0 mm | - | 37 W/m² | - |
| 1777677521 | 15° C | 79% | 1017.2 hPa | 0 mm | - | 28 W/m² | - |
| 1777677219 | 15° C | 78% | 1017.2 hPa | 0 mm | - | 37 W/m² | - |
| 1777676917 | 15.56° C | 77% | 1017 hPa | 0 mm | - | 39 W/m² | - |
| 1777676616 | 15.56° C | 75% | 1016.9 hPa | 0 mm | - | 57 W/m² | - |
| 1777676313 | 15.56° C | 72% | 1016.8 hPa | 0 mm | - | 55 W/m² | - |
| 1777676010 | 15.56° C | 71% | 1016.6 hPa | 0 mm | - | 56 W/m² | - |
| 1777675706 | 15.56° C | 71% | 1016.3 hPa | 0 mm | - | 79 W/m² | - |
| 1777675404 | 16.11° C | 72% | 1016.5 hPa | 0 mm | - | 71 W/m² | - |
| 1777675100 | 16.11° C | 69% | 1016.5 hPa | 0 mm | - | 73 W/m² | - |
| 1777674796 | 16.11° C | 69% | 1016.4 hPa | 0 mm | - | 67 W/m² | - |
| 1777674492 | 16.11° C | 70% | 1016.4 hPa | 0 mm | - | 77 W/m² | - |
| 1777674191 | 16.11° C | 69% | 1016.2 hPa | 0 mm | - | 120 W/m² | - |
| 1777673887 | 16.11° C | 69% | 1015.7 hPa | 0 mm | - | 125 W/m² | - |
* Rain latest hour (hover to see other rain measurements)
** Current wind speed in m/s (hover to see current wind gust speed)